Home   Weather   Port Harcourt   Past weeks

Flag for Nigeria Past Weather in Port Harcourt, Nigeria — Yesterday and Last 2 Weeks

Now
86 °F

Passing clouds.


Feels Like: 93 °F
Forecast: 74 / 91 °F
Wind: 5 mph from Southwest

Location: Malabo/Fernando Poo

Current Time: Dec 11, 2016 at 11:02:37 am

Latest Report: Dec 11, 2016 at 9:00 am


Visibility: N/A

Pressure: 29.86 "Hg

Humidity: 66%

Dew Point: 73 °F

Location of Port HarcourtLocation

Past Weather in Port Harcourt — Graph

°F

Port Harcourt Temperature Yesterday

Maximum temperature yesterday: 88 °F (at 10:00 am)
Minimum temperature yesterday: 73 °F (at 4:00 am)
Average temperature yesterday: 81 °F

High & Low Weather Summary for the Past Weeks

 TemperatureHumidityPressure
High91 °F (Dec 9, 1:00 pm)94% (Nov 27, 6:00 am)29.95 "Hg (Nov 27, 6:00 am)
Low73 °F (Nov 27, 6:00 am)55% (Dec 5, 12:00 pm)29.74 "Hg (Nov 26, 4:00 pm)
Average81 °F83%29.86 "Hg
* Reported Nov 26 9:00 am — Dec 11 9:00 am, Port Harcourt, Weather by CustomWeather, © 2016

Note: Actual official high and low records may vary slightly from our data, if they occured in-between our weather recording intervals... More about our weather records

Advertising

Port Harcourt Weather History for the Previous 24 Hours

Scroll right to see more
 ConditionsComfort  
Time TempWeatherWind HumidityBarometerVisibility
9:00 am
Sun, Dec 11
86 °FPassing clouds.5 mph66%29.86 "HgN/A
8:00 am79 °FPassing clouds.No wind84%29.86 "HgN/A
7:00 am73 °FPassing clouds.1 mph94%29.86 "HgN/A
5:00 am75 °FPassing clouds.2 mph89%29.83 "HgN/A
4:00 am75 °FPassing clouds.2 mph94%29.80 "HgN/A
3:00 am77 °FPassing clouds.3 mph89%29.83 "HgN/A
2:00 am77 °FPassing clouds.5 mph89%29.83 "HgN/A
1:00 am75 °FPassing clouds.2 mph94%29.83 "HgN/A
12:00 am77 °FPassing clouds.3 mph89%29.86 "HgN/A
11:00 pm
Sat, Dec 10
77 °FPassing clouds.3 mph89%29.86 "HgN/A
10:00 pm77 °FPassing clouds.2 mph94%29.86 "HgN/A
9:00 pm79 °FPassing clouds.6 mph89%29.86 "HgN/A
8:00 pm79 °FPassing clouds.6 mph89%29.83 "HgN/A
7:00 pm81 °FPassing clouds.7 mph84%29.83 "HgN/A
6:00 pm82 °FPassing clouds.7 mph79%29.80 "HgN/A
5:00 pm84 °FPassing clouds.8 mph74%29.80 "HgN/A
4:00 pm86 °FScattered clouds.7 mph70%29.77 "HgN/A
3:00 pm86 °FScattered clouds.3 mph75%29.80 "HgN/A
2:00 pm84 °FScattered clouds.7 mph79%29.83 "HgN/A
1:00 pm86 °FScattered clouds.9 mph75%29.86 "HgN/A
12:00 pm86 °FScattered clouds.8 mph75%29.86 "HgN/A
11:00 am86 °FPassing clouds.7 mph70%29.86 "HgN/A
Weather by CustomWeather, © 2016

See weather overviewHow to use our weather pages